Location: Agadir Irigdalene
(31.2522°N, 8.7797°W)
Time: 07:12:35
(UTC+00:00)

Cosmos 2218 Rocket - Pass Details

Date: 01 December 2020
Orbit: 956 x 1006 km, 82.9° (Epoch: 16 January)

Event Time Altitude Azimuth Distance (km) Brightness Sun altitude
Rises 18:17:51 0° 354° (N) 3,638 6.9 -9.9°
Reaches altitude 10° 18:20:21 10° 355° (N) 2,690 6.2 -10.4°
Maximum altitude 18:26:30 89° 80° (E) 964 4.0 -11.6°
Drops below altitude 10° 18:32:41 10° 176° (S) 2,695 6.5 -12.9°
Sets 18:35:11 0° 176° (S) 3,645 7.2 -13.4°
